GRBBeta
1 60237U 24128C   26110.53682762  .00003199  00000-0  22674-3 0  9990
2 60237  61.9905  58.4576 0047593 122.4737 238.0970 15.06165685 97580
Curium One
1 60242U 24128H   26110.56991154  .00006871  00000-0  40508-3 0  9993
2 60242  61.9799  49.6976 0047243 118.9835 241.6009 15.11574405 97745
ROBUSTA-3A
1 60243U 24128J   26110.56940255  .00006920  00000-0  41672-3 0  9998
2 60243  61.9876  51.8581 0048211 116.4617 244.1436 15.10757290 97719
CatSat
1 60246U 24125J   26110.43565523  .00031134  00000-0  49769-3 0  9995
2 60246  97.2150 322.4369 0024792  40.0439 320.2636 15.52750259 98412
HYPERVIEW-1G (RS66S)
1 61772U 24199AP  26110.54874412  .00070067  00000-0  73257-3 0  9990
2 61772  97.2983 347.8848 0009496 122.1251 238.0931 15.64188359125630
AO-123
1 61781U 24199AY  26110.54695249  .00006608  00000-0  19746-3 0  9992
2 61781  97.3076 339.7481 0014979 149.7195 210.4917 15.34811857125081
JINJUSat 1B
1 63210U 25052A   26110.16665826  .00010515  00000-0  34608-3 0  9992
2 63210  97.4063   6.9066 0001502 324.2981  35.8160 15.31686669 61211
NUSHSAT 1
1 63211U 25052B   26110.42550904  .00012650  00000-0  39016-3 0  9992
2 63211  97.4041   7.5519 0001412 337.6222  22.4959 15.33721473 61284
TEVEL2-4
1 63213U 25052D   26110.43637975  .00011561  00000-0  36978-3 0  9993
2 63213  97.3964   6.8038 0001795  13.6410 346.4880 15.32579641 61268
TEVEL2-5
1 63214U 25052E   26110.45094764  .00011722  00000-0  37658-3 0  9994
2 63214  97.3957   6.7817 0001805  13.5503 346.5787 15.32436333 61266
TEVEL2-6
1 63215U 25052F   26110.46186806  .00014518  00000-0  46619-3 0  9998
2 63215  97.3965   6.7776 0001825   9.6359 350.4917 15.32399766 61264
TEVEL2-1
1 63217U 25052H   26109.42709071  .00015614  00000-0  50887-3 0  9999
2 63217  97.3940   5.4342 0002613  23.2083 336.9276 15.31905551 61098
TEVEL2-3
1 63218U 25052J   26108.96638287  .00015703  00000-0  51125-3 0  9993
2 63218  97.3945   4.9897 0002713  24.3488 335.7881 15.31935368 61026
TEVEL2-2
1 63219U 25052K   26109.16637368  .00015761  00000-0  51368-3 0  9999
2 63219  97.3938   5.1752 0002668  24.4012 335.7356 15.31902034 61059
TEVEL2-9
1 63237U 25052AD  26110.50951289  .00013204  00000-0  45511-3 0  9993
2 63237  97.3999   6.0081 0006143   8.4032 351.7310 15.30118320 61208
TEVEL2-7
1 63238U 25052AE  26109.75532058  .00015216  00000-0  52820-3 0  9994
2 63238  97.4006   5.1959 0006354  10.1088 350.0279 15.29851063 61086
TEVEL2-8
1 63239U 25052AF  26110.15535461  .00010250  00000-0  35706-3 0  9999
2 63239  97.4002   5.5726 0006363   9.7642 350.3721 15.29836405 61144
HYDRA-W
1 63490U 25052BL  26110.51873637  .01406370  11340-2  25441-2 0  9996
2 63490  97.3764  14.4643 0006825 165.0112 195.1371 16.01783806 61788
HADES-ICM (SO-125)
1 63492U 25052BN  26110.46188959  .00209105  00000-0  14714-2 0  9994
2 63492  97.3846  12.8994 0003211  96.1730 263.9900 15.73498950 61679
SPIRONE
1 66657U 25274H   26109.56130970  .00001713  00000-0  16878-3 0  9994
2 66657  97.7465  39.7084 0011356 202.6685 157.4034 14.93301876 21476
K-HERO
1 66660U 25274L   26110.25245104  .00001026  00000-0  10214-3 0  9997
2 66660  97.7473  40.5069 0013184 206.1638 153.8917 14.93737828 21582
SNUGLITE-III DURI
1 66661U 25274M   26110.24225264  .00000958  00000-0  95561-4 0  9994
2 66661  97.7469  40.5148 0013755 207.3908 152.6588 14.93803745 21586
SilverSat
1 66909U 98067XV  26110.30149977  .01400443  13415-2  13903-2 0  9990
2 66909  51.6101 207.3485 0013786 338.7955  21.2486 16.10656402 21793
SAKHACUBE-CHOLBON
1 67290U 25313AU  26110.45880412  .00006778  00000-0  28410-3 0  9996
2 67290  97.3949 186.2577 0009477 189.9100 170.1952 15.23797340 17181
RS95S (QMR-KWT-2)
1 67291U 25313AV  26110.42557593  .00009611  00000-0  39043-3 0  9998
2 67291  97.3951 186.3006 0009398 189.1014 171.0055 15.24737921 17185
Ten-Koh2
1 68261U 25241B   26107.86423701  .00006659  00000-0  29209-3 0  9995
2 68261  51.6442 246.5989 0005133 305.4986  54.5512 15.23108059  5716
JACK-002
1 68417U 26067B   26107.82014455  .00004920  00000-0  24097-3 0  9992
2 68417  97.4526  67.2120 0003893 109.6101 250.5554 15.18618492  2788
DISCO 2
1 68431U 26067R   26107.82576245  .00006236  00000-0  30838-3 0  9990
2 68431  97.4563  67.2138 0002359 151.7972 208.3390 15.18175708  2781
HADES-SA (SpinnyONE)
1 68446U 26067AG  26107.37969236  .00010403  00000-0  52913-3 0  9991
2 68446  97.4371  66.6999 0004795 295.6161  64.4577 15.17015776  2703
PARUS-6U1
1 68456U 26067AS  26107.84104702  .00004104  00000-0  21185-3 0  9991
2 68456  97.4512  67.1822 0003730 276.5615  83.5194 15.16870724  2788
SAL-E
1 68458U 26067AU  26107.84135456  .00005731  00000-0  29434-3 0  9995
2 68458  97.4438  67.1660 0003974 291.1678  68.9131 15.16877365  2785
IO-86
1 40931U          25360.30710720  .00000000  00000-0  12800-3 0    00
2 40931   6.0006 332.5373 0012733 338.8432   8.1437 14.79075515    01
LILIUM-4                
1 71922C 26067AC  26089.50133053 -.00014632  00000+0 -74472-3 0    04
2 71922  97.4497  49.1617 0004341   5.9603 355.7042 15.16896692    16
